Miscellaneous Local Product
Issued by NWS Hastings, NE

Home | Current Version | Previous Version | Graphics & Text | Print | Product List | Glossary On
Versions: 1 2 3 4 5 6 7 8 9 10 11 12 13 14 15 16 17 18 19 20 21 22 23 24 25 26 27 28 29 30 31 32 33 34 35 36 37 38 39 40 41 42 43 44 45 46 47 48 49 50
380
AXUS43 KGID 121202
MISGRI

GID CWA HOURLY WEATHER ROUNDUP
NATIONAL WEATHER SERVICE HASTINGS NE
600 AM CST TUE DEC 12 2017

NOTE: "FAIR" INDICATES FEW OR NO CLOUDS BELOW 12,000 FEET WITH NO
SIGNIFICANT WEATHER AND/OR OBSTRUCTIONS TO VISIBILITY.

...SOUTH CENTRAL NEBRASKA...

CITY           SKY/WX    TMP DP  RH WIND       PRES   REMARKS
GRAND ISLAND   CLOUDY    30  27  88 SW6       30.32F WCI  24
KEARNEY        CLOUDY    26  21  81 W6        30.33F WCI  19
HASTINGS       CLOUDY    31  27  85 SW5       30.33F WCI  26
ORD            CLOUDY    29  26  89 W7        30.29F WCI  22
YORK           CLOUDY    16  16 100 W7        30.33F WCI   6
AURORA         CLOUDY    25  23  92 W5        30.32F WCI  19
LEXINGTON      CLOUDY    21  18  88 NW6       30.34F WCI  14
HOLDREGE       CLOUDY    23  21  91 W6        30.34S WCI  15
HEBRON         CLOUDY    25  22  89 W3        30.36F

...NEBRASKA PANHANDLE...

CITY           SKY/WX    TMP DP  RH WIND       PRES   REMARKS
CHADRON        CLOUDY    23  16  74 SW9       30.29F WCI  13
ALLIANCE       CLOUDY    13   8  81 W5        30.28F WCI   5
SCOTTSBLUFF    CLOUDY    24  15  68 NW8       30.32F WCI  15
SIDNEY         CLOUDY    24  14  65 W10       30.32F WCI  14

...WESTERN AND NORTH CENTRAL NEBRASKA...

CITY           SKY/WX    TMP DP  RH WIND       PRES   REMARKS
VALENTINE      CLOUDY    22  19  89 W7        30.27F WCI  13
AINSWORTH      CLOUDY    24  23  94 W6        30.27F WCI  17
ONEILL         CLOUDY    31  31  97 W5        30.27F WCI  27
BROKEN BOW     CLOUDY    29  22  75 W12       30.30F WCI  19
IMPERIAL       CLOUDY    21  12  68 W7        30.33F WCI  12
NORTH PLATTE   CLOUDY    16  14  92 NW5       30.32F WCI   9
MCCOOK         CLOUDY    19  16  88 W8        30.36F WCI   9

...EASTERN NEBRASKA...

CITY           SKY/WX    TMP DP  RH WIND       PRES   REMARKS
NORFOLK        CLOUDY    16  15  96 W5        30.30S WCI   9
SO SIOUX CITY  CLOUDY    11  10  96 NW3       30.33F
TEKAMAH        CLOUDY    14  10  84 NW5       30.34F WCI   6
COLUMBUS       CLOUDY    14  11  87 W6        30.34F WCI   5
ALBION         CLOUDY    23  21  90 CALM      30.30F
OMAHA EPPLEY   CLOUDY    15   9  76 NW7       30.35S WCI   5
OFFUTT AFB     CLOUDY    16  11  81 W3        30.34R
MILLARD        CLOUDY    20  14  79 NW6       30.35S WCI  12
LINCOLN        CLOUDY    20  15  81 W5        30.36F WCI  13
NEBRASKA CITY  CLOUDY    17  15  93 NW8       30.34S WCI   7
BEATRICE       CLOUDY    17  15  90 W5        30.35S WCI  10
FALLS CITY     CLOUDY    18  14  84 NW9       30.35S WCI   7

...NORTHERN KANSAS...

CITY           SKY/WX    TMP DP  RH WIND       PRES   REMARKS
GOODLAND       CLOUDY    21   9  59 W9        30.35F WCI  11
HILL CITY      CLOUDY    24  20  84 W7        30.38F WCI  16
NORTON         SUNNY     23  16  74 W9        30.35F WCI  13
PHILLIPSBURG   CLEAR     21  18  86 W7        30.37F WCI  13
SMITH CENTER   CLEAR     21  19  93 W5        30.37F WCI  15
HAYS           PTCLDY    23  20  88 W8        30.39F WCI  14
RUSSELL        CLOUDY    23  22  96 W8        30.37F WCI  14
CONCORDIA      CLOUDY    25  21  85 W3        30.36F
SALINA         CLOUDY    26  22  84 W3        30.39F
TOPEKA         CLEAR     24  17  74 NW8       30.36S WCI  15



USA.gov is the U.S. government's official web portal to all federal, state and local government web resources and services.